| time (UTC) | temp C | wind direction | speed KPH | gust KPH | rain 1hr cm | rain 24hr cm | rain mn cm | humidity % | barometer mb |
| 20260906225518 | 30 | 36 | 6.4 | 19.3 | 0.00 | 0.00 | 0.00 | 35 | 1017.1 |
| 20260906224516 | 30 | 34 | 8.0 | 17.7 | 0.00 | 0.00 | 0.00 | 35 | 1017.1 |
| 20260906223518 | 30 | 48 | 6.4 | 17.7 | 0.00 | 0.00 | 0.00 | 35 | 1017.3 |
| 20260906222517 | 29 | 84 | 3.2 | 16.1 | 0.00 | 0.00 | 0.00 | 35 | 1017.5 |
| 20260906221516 | 29 | 40 | 3.2 | 9.7 | 0.00 | 0.00 | 0.00 | 36 | 1017.6 |
| 20260906220517 | 30 | 36 | 4.8 | 11.3 | 0.00 | 0.00 | 0.00 | 35 | 1017.8 |
| 20260906215517 | 30 | 39 | 3.2 | 14.5 | 0.00 | 0.00 | 0.00 | 35 | 1018.0 |
| 20260906214518 | 29 | 68 | 3.2 | 8.0 | 0.00 | 0.00 | 0.00 | 36 | 1018.1 |
| 20260906213538 | 28 | 48 | 3.2 | 16.1 | 0.00 | 0.00 | 0.00 | 35 | 1018.3 |
| 20260906212516 | 29 | 39 | 6.4 | 19.3 | 0.00 | 0.00 | 0.00 | 35 | 1018.3 |
| 20260906211517 | 29 | 45 | 6.4 | 16.1 | 0.00 | 0.00 | 0.00 | 35 | 1018.5 |
| 20260906210517 | 30 | 120 | 6.4 | 17.7 | 0.00 | 0.00 | 0.00 | 34 | 1018.7 |
| 20260906205516 | 29 | 55 | 4.8 | 17.7 | 0.00 | 0.00 | 0.00 | 34 | 1018.7 |
| 20260906204517 | 30 | 55 | 6.4 | 14.5 | 0.00 | 0.00 | 0.00 | 34 | 1018.9 |
| 20260906203517 | 29 | 63 | 6.4 | 16.1 | 0.00 | 0.00 | 0.00 | 35 | 1018.9 |
| 20260906202537 | 30 | 66 | 4.8 | 16.1 | 0.00 | 0.00 | 0.00 | 34 | 1019.0 |
| 20260906201517 | 30 | 207 | 3.2 | 9.7 | 0.00 | 0.00 | 0.00 | 35 | 1019.1 |
| 20260906200516 | 28 | 171 | 3.2 | 12.9 | 0.00 | 0.00 | 0.00 | 36 | 1019.3 |
| 20260906195517 | 28 | 96 | 6.4 | 17.7 | 0.00 | 0.00 | 0.00 | 37 | 1019.4 |
| 20260906194515 | 28 | 61 | 4.8 | 16.1 | 0.00 | 0.00 | 0.00 | 37 | 1019.5 |
| 20260906193515 | 27 | 70 | 4.8 | 14.5 | 0.00 | 0.00 | 0.00 | 37 | 1019.6 |
| 20260906192535 | 28 | 113 | 4.8 | 16.1 | 0.00 | 0.00 | 0.00 | 38 | 1019.8 |
| 20260906191515 | 28 | 61 | 4.8 | 17.7 | 0.00 | 0.00 | 0.00 | 38 | 1020.0 |
| 20260906190515 | 27 | 96 | 4.8 | 12.9 | 0.00 | 0.00 | 0.00 | 38 | 1020.1 |
| 20260906185555 | 27 | 81 | 6.4 | 12.9 | 0.00 | 0.00 | 0.00 | 39 | 1020.3 |
| 20260906184515 | 27 | 107 | 4.8 | 17.7 | 0.00 | 0.00 | 0.00 | 40 | 1020.5 |
| 20260906183515 | 26 | 79 | 6.4 | 14.5 | 0.00 | 0.00 | 0.00 | 42 | 1020.7 |
| 20260906182515 | 26 | 87 | 8.0 | 16.1 | 0.00 | 0.00 | 0.00 | 42 | 1020.8 |
| 20260906181515 | 26 | 75 | 1.6 | 14.5 | 0.00 | 0.00 | 0.00 | 44 | 1020.9 |
| 20260906180535 | 26 | 79 | 4.8 | 12.9 | 0.00 | 0.00 | 0.00 | 45 | 1021.1 |
| 20260906175515 | 26 | 128 | 3.2 | 12.9 | 0.00 | 0.00 | 0.00 | 45 | 1021.2 |
| 20260906174515 | 26 | 100 | 1.6 | 4.8 | 0.00 | 0.00 | 0.00 | 46 | 1021.4 |
| 20260906173515 | 26 | 114 | 1.6 | 6.4 | 0.00 | 0.00 | 0.00 | 47 | 1021.6 |
| 20260906172515 | 25 | 61 | 3.2 | 9.7 | 0.00 | 0.00 | 0.00 | 48 | 1021.8 |
| 20260906171515 | 25 | 111 | 3.2 | 6.4 | 0.00 | 0.00 | 0.00 | 49 | 1022.0 |
| 20260906170515 | 25 | 102 | 4.8 | 12.9 | 0.00 | 0.00 | 0.00 | 49 | 1022.2 |
| 20260906165515 | 25 | 92 | 3.2 | 9.7 | 0.00 | 0.00 | 0.00 | 48 | 1022.4 |
| 20260906164515 | 24 | 113 | 3.2 | 8.0 | 0.00 | 0.00 | 0.00 | 49 | 1022.4 |
| 20260906163515 | 24 | 169 | 3.2 | 12.9 | 0.00 | 0.00 | 0.00 | 49 | 1022.3 |
| 20260906162515 | 23 | 67 | 4.8 | 11.3 | 0.00 | 0.00 | 0.00 | 51 | 1022.2 |
| 20260906161515 | 23 | 92 | 3.2 | 8.0 | 0.00 | 0.00 | 0.00 | 49 | 1022.1 |
| 20260906160515 | 23 | 116 | 3.2 | 11.3 | 0.00 | 0.00 | 0.00 | 49 | 1022.1 |
| 20260906155515 | 23 | 92 | 1.6 | 8.0 | 0.00 | 0.00 | 0.00 | 47 | 1022.1 |
| 20260906154515 | 23 | 113 | 1.6 | 8.0 | 0.00 | 0.00 | 0.00 | 48 | 1022.1 |
| 20260906153515 | 22 | 107 | 3.2 | 9.7 | 0.00 | 0.00 | 0.00 | 49 | 1022.0 |
| 20260906152515 | 22 | 109 | 4.8 | 9.7 | 0.00 | 0.00 | 0.00 | 50 | 1022.0 |
| 20260906151515 | 22 | 219 | 1.6 | 6.4 | 0.00 | 0.00 | 0.00 | 50 | 1022.0 |
| 20260906150515 | 22 | 74 | 1.6 | 4.8 | 0.00 | 0.00 | 0.00 | 50 | 1022.1 |
| 20260906145515 | 21 | 115 | 1.6 | 8.0 | 0.00 | 0.00 | 0.00 | 52 | 1022.2 |
| 20260906144515 | 21 | 109 | 1.6 | 4.8 | 0.00 | 0.00 | 0.00 | 54 | 1022.1 |
| 20260906143515 | 21 | 61 | 1.6 | 4.8 | 0.00 | 0.00 | 0.00 | 55 | 1022.1 |
| 20260906142515 | 20 | 59 | 1.6 | 6.4 | 0.00 | 0.00 | 0.00 | 56 | 1022.2 |
| 20260906141535 | 21 | 263 | 1.6 | 4.8 | 0.00 | 0.00 | 0.00 | 54 | 1022.2 |
| 20260906140515 | 20 | 263 | 1.6 | 3.2 | 0.00 | 0.00 | 0.00 | 56 | 1022.2 |
| 20260906135535 | 20 | 263 | 0.0 | 3.2 | 0.00 | 0.00 | 0.00 | 56 | 1022.2 |
| 20260906134535 | 19 | 263 | 0.0 | 4.8 | 0.00 | 0.00 | 0.00 | 54 | 1022.2 |
| 20260906133517 | 18 | 263 | 1.6 | 3.2 | 0.00 | 0.00 | 0.00 | 57 | 1021.8 |
| 20260906132516 | 18 | 263 | 0.0 | 3.2 | 0.00 | 0.00 | 0.00 | 57 | 1021.9 |
| 20260906131517 | 17 | 0.0 | 3.2 | 0.00 | 0.00 | 0.00 | 60 | 1021.9 | |
| 20260906130517 | 17 | 263 | 0.0 | 3.2 | 0.00 | 0.00 | 0.00 | 62 | 1021.8 |
| 20260906125517 | 17 | 263 | 0.0 | 3.2 | 0.00 | 0.00 | 0.00 | 62 | 1021.7 |
| 20260906124538 | 17 | 263 | 1.6 | 3.2 | 0.00 | 0.00 | 0.00 | 62 | 1021.5 |
| 20260906123517 | 16 | 262 | 1.6 | 4.8 | 0.00 | 0.00 | 0.00 | 63 | 1021.5 |
| 20260906122517 | 17 | 271 | 0.0 | 3.2 | 0.00 | 0.00 | 0.00 | 62 | 1021.7 |
| 20260906121538 | 17 | 0.0 | 0.0 | 0.00 | 0.00 | 0.00 | 60 | 1021.7 | |
| 20260906120537 | 17 | 0.0 | 0.0 | 0.00 | 0.00 | 0.00 | 59 | 1021.8 | |
| 20260906115518 | 17 | 0.0 | 0.0 | 0.00 | 0.00 | 0.00 | 59 | 1021.9 | |
| 20260906114518 | 17 | 242 | 3.2 | 6.4 | 0.00 | 0.00 | 0.00 | 58 | 1021.8 |
| 20260906113517 | 17 | 22 | 1.6 | 3.2 | 0.00 | 0.00 | 0.00 | 57 | 1021.8 |
| 20260906112517 | 18 | 8 | 1.6 | 4.8 | 0.00 | 0.00 | 0.00 | 56 | 1021.7 |
| 20260906111517 | 18 | 352 | 3.2 | 8.0 | 0.00 | 0.00 | 0.00 | 55 | 1021.6 |
| 20260906110518 | 18 | 8 | 1.6 | 4.8 | 0.00 | 0.00 | 0.00 | 54 | 1021.4 |
| 20260906105518 | 18 | 11 | 1.6 | 8.0 | 0.00 | 0.00 | 0.00 | 54 | 1021.6 |
| 20260906104517 | 18 | 15 | 3.2 | 8.0 | 0.00 | 0.00 | 0.00 | 53 | 1021.2 |
| 20260906103518 | 19 | 357 | 3.2 | 6.4 | 0.00 | 0.00 | 0.00 | 50 | 1021.3 |
| 20260906102515 | 19 | 350 | 3.2 | 8.0 | 0.00 | 0.00 | 0.00 | 49 | 1021.4 |
| 20260906101535 | 20 | 349 | 1.6 | 4.8 | 0.00 | 0.00 | 0.00 | 49 | 1021.3 |
| 20260906100515 | 20 | 26 | 3.2 | 11.3 | 0.00 | 0.00 | 0.00 | 47 | 1021.3 |
| 20260906095515 | 20 | 260 | 4.8 | 14.5 | 0.00 | 0.00 | 0.00 | 46 | 1021.3 |
| 20260906094515 | 21 | 259 | 8.0 | 17.7 | 0.00 | 0.00 | 0.00 | 46 | 1021.3 |
| 20260906093515 | 21 | 246 | 8.0 | 17.7 | 0.00 | 0.00 | 0.00 | 46 | 1021.3 |
| 20260906092515 | 21 | 254 | 8.0 | 19.3 | 0.00 | 0.00 | 0.00 | 46 | 1021.3 |
| 20260906091515 | 21 | 271 | 6.4 | 16.1 | 0.00 | 0.00 | 0.00 | 45 | 1021.2 |
| 20260906090515 | 21 | 265 | 6.4 | 14.5 | 0.00 | 0.00 | 0.00 | 44 | 1021.2 |
| 20260906085515 | 21 | 247 | 9.7 | 17.7 | 0.00 | 0.00 | 0.00 | 44 | 1021.2 |
| 20260906084515 | 21 | 244 | 9.7 | 24.1 | 0.00 | 0.00 | 0.00 | 45 | 1021.0 |
| 20260906083515 | 21 | 259 | 9.7 | 20.9 | 0.00 | 0.00 | 0.00 | 45 | 1021.1 |
| 20260906082535 | 21 | 334 | 6.4 | 19.3 | 0.00 | 0.00 | 0.00 | 45 | 1020.9 |
| 20260906081515 | 21 | 291 | 6.4 | 19.3 | 0.00 | 0.00 | 0.00 | 45 | 1020.9 |
| 20260906080515 | 22 | 313 | 4.8 | 16.1 | 0.00 | 0.00 | 0.00 | 45 | 1020.9 |
| 20260906075515 | 22 | 271 | 9.7 | 22.5 | 0.00 | 0.00 | 0.00 | 45 | 1020.9 |
| 20260906074515 | 22 | 268 | 11.3 | 24.1 | 0.00 | 0.00 | 0.00 | 45 | 1020.8 |
| 20260906073535 | 22 | 257 | 14.5 | 30.6 | 0.00 | 0.00 | 0.00 | 45 | 1020.7 |
| 20260906072515 | 22 | 269 | 17.7 | 25.7 | 0.00 | 0.00 | 0.00 | 46 | 1020.7 |
| 20260906071518 | 22 | 262 | 14.5 | 25.7 | 0.00 | 0.00 | 0.00 | 46 | 1020.8 |
| 20260906070537 | 22 | 264 | 16.1 | 27.4 | 0.00 | 0.00 | 0.00 | 46 | 1020.9 |
| 20260906065518 | 22 | 259 | 12.9 | 27.4 | 0.00 | 0.00 | 0.00 | 46 | 1020.9 |
| 20260906064517 | 22 | 263 | 17.7 | 32.2 | 0.00 | 0.00 | 0.00 | 45 | 1021.0 |
| 20260906063518 | 22 | 267 | 14.5 | 27.4 | 0.00 | 0.00 | 0.00 | 45 | 1021.0 |
| 20260906062537 | 22 | 264 | 14.5 | 32.2 | 0.00 | 0.00 | 0.00 | 45 | 1021.1 |
| 20260906061537 | 22 | 267 | 14.5 | 24.1 | 0.00 | 0.00 | 0.00 | 45 | 1021.2 |
| 20260906060515 | 22 | 262 | 14.5 | 24.1 | 0.00 | 0.00 | 0.00 | 45 | 1021.3 |
| 20260906055537 | 22 | 260 | 14.5 | 24.1 | 0.00 | 0.00 | 0.00 | 46 | 1021.4 |
| 20260906054537 | 22 | 257 | 12.9 | 24.1 | 0.00 | 0.00 | 0.00 | 46 | 1021.5 |
| 20260906053517 | 22 | 262 | 12.9 | 27.4 | 0.00 | 0.00 | 0.00 | 46 | 1021.5 |
| 20260906052517 | 22 | 256 | 9.7 | 27.4 | 0.00 | 0.00 | 0.00 | 45 | 1021.6 |
| 20260906051517 | 22 | 251 | 9.7 | 24.1 | 0.00 | 0.00 | 0.00 | 47 | 1021.7 |
| 20260906050517 | 23 | 286 | 9.7 | 22.5 | 0.00 | 0.00 | 0.00 | 44 | 1021.9 |
| 20260906045517 | 23 | 280 | 8.0 | 22.5 | 0.00 | 0.00 | 0.00 | 42 | 1022.0 |
| 20260906044516 | 23 | 260 | 12.9 | 27.4 | 0.00 | 0.00 | 0.00 | 41 | 1021.9 |
| 20260906043518 | 25 | 242 | 20.9 | 38.6 | 0.00 | 0.00 | 0.00 | 39 | 1021.8 |
| 20260906042518 | 25 | 250 | 14.5 | 29.0 | 0.00 | 0.00 | 0.00 | 37 | 1021.3 |
| 20260906041515 | 25 | 267 | 14.5 | 30.6 | 0.00 | 0.00 | 0.00 | 35 | 1021.0 |
| 20260906040515 | 25 | 236 | 16.1 | 37.0 | 0.00 | 0.00 | 0.00 | 34 | 1020.9 |
| 20260906035515 | 26 | 253 | 14.5 | 30.6 | 0.00 | 0.00 | 0.00 | 33 | 1020.9 |
| 20260906034515 | 25 | 277 | 14.5 | 27.4 | 0.00 | 0.00 | 0.00 | 34 | 1020.7 |
| 20260906033515 | 25 | 254 | 12.9 | 32.2 | 0.00 | 0.00 | 0.00 | 34 | 1020.4 |
| 20260906032515 | 25 | 258 | 14.5 | 30.6 | 0.00 | 0.00 | 0.00 | 34 | 1020.5 |
| 20260906031535 | 25 | 261 | 14.5 | 24.1 | 0.00 | 0.00 | 0.00 | 34 | 1020.4 |
| 20260906030515 | 25 | 256 | 12.9 | 24.1 | 0.00 | 0.00 | 0.00 | 33 | 1020.2 |
| 20260906025555 | 25 | 259 | 12.9 | 22.5 | 0.00 | 0.00 | 0.00 | 33 | 1019.9 |
| 20260906024515 | 26 | 261 | 11.3 | 22.5 | 0.00 | 0.00 | 0.00 | 32 | 1019.7 |
| 20260906023515 | 26 | 252 | 11.3 | 22.5 | 0.00 | 0.00 | 0.00 | 31 | 1019.5 |
| 20260906022535 | 26 | 257 | 9.7 | 16.1 | 0.00 | 0.00 | 0.00 | 30 | 1019.4 |
| 20260906021515 | 27 | 257 | 9.7 | 16.1 | 0.00 | 0.00 | 0.00 | 30 | 1019.4 |
| 20260906020515 | 27 | 257 | 9.7 | 16.1 | 0.00 | 0.00 | 0.00 | 29 | 1019.4 |
| 20260906015515 | 27 | 264 | 6.4 | 16.1 | 0.00 | 0.00 | 0.00 | 29 | 1019.4 |
| 20260906014515 | 27 | 263 | 8.0 | 19.3 | 0.00 | 0.00 | 0.00 | 28 | 1019.4 |
| 20260906013515 | 28 | 295 | 4.8 | 16.1 | 0.00 | 0.00 | 0.00 | 27 | 1019.3 |
| 20260906012535 | 28 | 294 | 4.8 | 17.7 | 0.00 | 0.00 | 0.00 | 27 | 1019.3 |
| 20260906011515 | 28 | 246 | 4.8 | 12.9 | 0.00 | 0.00 | 0.00 | 27 | 1019.2 |
| 20260906010515 | 28 | 313 | 3.2 | 6.4 | 0.00 | 0.00 | 0.00 | 27 | 1019.2 |
| 20260906005536 | 28 | 6 | 4.8 | 16.1 | 0.00 | 0.00 | 0.00 | 26 | 1019.2 |
| 20260906004515 | 29 | 39 | 3.2 | 4.8 | 0.00 | 0.00 | 0.00 | 25 | 1019.2 |
| 20260906003515 | 29 | 17 | 3.2 | 11.3 | 0.00 | 0.00 | 0.00 | 25 | 1019.2 |
| 20260906002515 | 29 | 39 | 4.8 | 12.9 | 0.00 | 0.00 | 0.00 | 25 | 1019.2 |
| 20260906001515 | 29 | 53 | 1.6 | 8.0 | 0.00 | 0.00 | 0.00 | 25 | 1019.2 |
| 20260906000515 | 30 | 34 | 3.2 | 8.0 | 0.00 | 0.00 | 0.00 | 25 | 1019.2 |
| 20260905235515 | 30 | 84 | 1.6 | 4.8 | 0.00 | 0.00 | 0.00 | 25 | 1019.1 |
| 20260905234515 | 30 | 63 | 1.6 | 6.4 | 0.00 | 0.00 | 0.00 | 24 | 1019.1 |
| 20260905233535 | 30 | 269 | 0.0 | 4.8 | 0.00 | 0.00 | 0.00 | 24 | 1019.1 |
| 20260905232516 | 31 | 94 | 3.2 | 6.4 | 0.00 | 0.00 | 0.00 | 23 | 1019.0 |
| 20260905231515 | 31 | 115 | 3.2 | 6.4 | 0.00 | 0.00 | 0.00 | 23 | 1018.9 |
| 20260905230515 | 31 | 229 | 3.2 | 8.0 | 0.00 | 0.00 | 0.00 | 23 | 1018.9 |